Location: Erfurt
(50.9688°N, 11.0193°E)
Time: 06:34:05
(UTC+01:00)

ISS - Pass Details

Date: 15 November 2017
Orbit: 402 x 407 km, 51.6° (Epoch: 23 November)

Event Time Altitude Azimuth Distance (km) Brightness Sun altitude
Exits shadow 04:55:11 24° 135° (SE) 871 -1.8 -24.5°
Drops below altitude 10° 04:56:43 10° 125° (SE) 1,453 -0.3 -24.3°
Sets 04:58:48 0° 121° (ESE) 2,310 1.0 -23.9°
